Location: Newark
(42.1667°N, 14.5667°E)
Time: 14:39:36
(UTC+00:00)

Envisat - Pass Details

Date: 01 February 2020
Orbit: 764 x 766 km, 98.1° (Epoch: 28 February)

Event Time Altitude Azimuth Distance (km) Brightness Sun altitude
Rises 18:07:18 0° 209° (SSW) 3,220 6.7 -20.9°
Reaches altitude 10° 18:10:27 10° 230° (SW) 2,299 6.2 -21.5°
Maximum altitude 18:13:37 17° 269° (W) 1,888 6.0 -22.1°
Drops below altitude 10° 18:16:48 10° 309° (NW) 2,310 6.1 -22.7°
Sets 18:19:59 0° 329° (NNW) 3,241 6.6 -23.2°
